Time,TemperatureF,DewpointF,PressureIn,WindDirection,WindDirectionDegrees,WindSpeedMPH,WindSpeedGustMPH,Humidity,HourlyPrecipIn,Conditions,Clouds,dailyrainin,SoftwareType,DateUTC
2013-05-14 00:03:00,43.3,37.0,29.98,SSW,205,0.0,1.0,78,0.00,,,0.00,weatherlink.com 1.10,2013-05-14 04:03:00,
2013-05-14 00:18:00,43.2,38.0,29.98,SSW,205,0.0,0.0,83,0.00,,,0.00,weatherlink.com 1.10,2013-05-14 04:18:00,
2013-05-14 00:33:00,44.0,39.0,29.98,SSW,205,0.0,1.0,82,0.00,,,0.00,weatherlink.com 1.10,2013-05-14 04:33:00,
2013-05-14 00:48:00,43.9,39.0,29.97,SSW,207,1.0,1.0,82,0.00,,,0.00,weatherlink.com 1.10,2013-05-14 04:48:00,
2013-05-14 01:03:00,45.1,38.0,29.97,SW,218,0.0,2.0,75,0.00,,,0.00,weatherlink.com 1.10,2013-05-14 05:03:00,
2013-05-14 01:18:00,45.1,39.0,29.97,SW,214,0.0,1.0,79,0.00,,,0.00,weatherlink.com 1.10,2013-05-14 05:18:00,
2013-05-14 01:33:00,44.1,37.0,29.97,SSW,208,0.0,1.0,77,0.00,,,0.00,weatherlink.com 1.10,2013-05-14 05:33:00,
2013-05-14 01:48:00,44.1,37.0,29.98,SSW,208,0.0,0.0,76,0.00,,,0.00,weatherlink.com 1.10,2013-05-14 05:48:00,
2013-05-14 02:03:00,44.3,37.0,29.98,SW,218,1.0,2.0,75,0.00,,,0.00,weatherlink.com 1.10,2013-05-14 06:03:00,
2013-05-14 02:18:00,44.2,38.0,29.98,SW,217,0.0,1.0,79,0.00,,,0.00,weatherlink.com 1.10,2013-05-14 06:18:00,
2013-05-14 02:33:00,44.1,38.0,29.98,SSW,210,0.0,1.0,79,0.00,,,0.00,weatherlink.com 1.10,2013-05-14 06:33:00,
2013-05-14 02:48:00,44.5,37.0,29.98,SSW,200,0.0,1.0,75,0.00,,,0.00,weatherlink.com 1.10,2013-05-14 06:48:00,
2013-05-14 03:03:00,44.5,36.0,29.98,SSW,210,1.0,1.0,73,0.00,,,0.00,weatherlink.com 1.10,2013-05-14 07:03:00,
2013-05-14 03:18:00,44.3,36.0,29.98,SSW,211,0.0,0.0,73,0.00,,,0.00,weatherlink.com 1.10,2013-05-14 07:18:00,
2013-05-14 03:33:00,44.0,36.0,29.98,SSW,211,1.0,1.0,74,0.00,,,0.00,weatherlink.com 1.10,2013-05-14 07:33:00,
2013-05-14 03:48:00,43.7,35.0,29.98,SSW,210,0.0,0.0,72,0.00,,,0.00,weatherlink.com 1.10,2013-05-14 07:48:00,
2013-05-14 04:03:00,43.5,35.0,29.98,SSW,210,0.0,1.0,72,0.00,,,0.00,weatherlink.com 1.10,2013-05-14 08:03:00,
2013-05-14 04:18:00,43.5,36.0,29.98,SSW,210,0.0,1.0,75,0.00,,,0.00,weatherlink.com 1.10,2013-05-14 08:18:00,
2013-05-14 04:33:00,43.5,36.0,29.98,SSW,210,0.0,1.0,75,0.00,,,0.00,weatherlink.com 1.10,2013-05-14 08:33:00,
2013-05-14 04:48:00,43.6,36.0,29.98,SSW,210,0.0,1.0,74,0.00,,,0.00,weatherlink.com 1.10,2013-05-14 08:48:00,
2013-05-14 05:03:00,43.9,36.0,29.98,SW,218,1.0,2.0,73,0.00,,,0.00,weatherlink.com 1.10,2013-05-14 09:03:00,
2013-05-14 05:18:00,44.2,36.0,29.98,WSW,246,3.0,5.0,73,0.00,,,0.00,weatherlink.com 1.10,2013-05-14 09:18:00,
2013-05-14 05:33:00,44.2,36.0,29.98,West,261,4.0,5.0,73,0.00,,,0.00,weatherlink.com 1.10,2013-05-14 09:33:00,
2013-05-14 05:48:00,44.2,36.0,29.98,West,273,4.0,5.0,73,0.00,,,0.00,weatherlink.com 1.10,2013-05-14 09:48:00,
2013-05-14 06:03:00,44.2,36.0,29.99,SW,235,3.0,4.0,74,0.00,,,0.00,weatherlink.com 1.10,2013-05-14 10:03:00,
2013-05-14 06:18:00,44.2,36.0,29.99,West,271,3.0,6.0,74,0.00,,,0.00,weatherlink.com 1.10,2013-05-14 10:18:00,
2013-05-14 06:33:00,44.1,36.0,29.99,West,277,4.0,7.0,74,0.00,,,0.00,weatherlink.com 1.10,2013-05-14 10:33:00,
2013-05-14 06:48:00,43.9,36.0,29.99,WSW,243,2.0,5.0,75,0.00,,,0.00,weatherlink.com 1.10,2013-05-14 10:48:00,
2013-05-14 07:03:00,45.1,37.0,29.99,WSW,240,3.0,6.0,73,0.00,,,0.00,weatherlink.com 1.10,2013-05-14 11:03:00,
2013-05-14 07:18:00,45.8,37.0,30.00,WSW,255,3.0,7.0,70,0.00,,,0.00,weatherlink.com 1.10,2013-05-14 11:18:00,
2013-05-14 07:33:00,46.0,36.0,30.00,West,274,4.0,8.0,68,0.00,,,0.00,weatherlink.com 1.10,2013-05-14 11:33:00,
2013-05-14 07:48:00,46.8,36.0,30.00,SW,219,2.0,10.0,66,0.00,,,0.00,weatherlink.com 1.10,2013-05-14 11:48:00,
2013-05-14 08:03:00,47.9,35.0,30.00,WSW,254,5.0,10.0,62,0.00,,,0.00,weatherlink.com 1.10,2013-05-14 12:03:00,
2013-05-14 08:18:00,48.6,35.0,30.00,West,276,4.0,11.0,59,0.00,,,0.00,weatherlink.com 1.10,2013-05-14 12:18:00,
2013-05-14 08:34:00,49.3,34.0,30.00,WNW,282,7.0,10.0,56,0.00,,,0.00,weatherlink.com 1.10,2013-05-14 12:34:00,
2013-05-14 08:49:00,49.8,33.0,29.99,South,188,7.0,12.0,53,0.00,,,0.00,weatherlink.com 1.10,2013-05-14 12:49:00,
2013-05-14 09:04:00,50.0,34.0,29.98,SSW,198,3.0,9.0,55,0.00,,,0.00,weatherlink.com 1.10,2013-05-14 13:04:00,
2013-05-14 09:19:00,50.7,33.0,29.98,SSE,160,4.0,8.0,52,0.00,,,0.00,weatherlink.com 1.10,2013-05-14 13:19:00,
2013-05-14 09:34:00,50.8,35.0,29.97,SSW,197,5.0,10.0,55,0.00,,,0.00,weatherlink.com 1.10,2013-05-14 13:34:00,
2013-05-14 09:49:00,50.5,33.0,29.97,SSE,167,3.0,10.0,51,0.00,,,0.00,weatherlink.com 1.10,2013-05-14 13:49:00,
2013-05-14 10:04:00,50.8,34.0,29.96,SSW,194,5.0,8.0,52,0.00,,,0.00,weatherlink.com 1.10,2013-05-14 14:04:00,
2013-05-14 10:19:00,51.5,35.0,29.96,SSE,163,4.0,8.0,53,0.00,,,0.00,weatherlink.com 1.10,2013-05-14 14:19:00,
2013-05-14 10:34:00,52.7,34.0,29.96,ESE,109,3.0,7.0,50,0.00,,,0.00,weatherlink.com 1.10,2013-05-14 14:34:00,
2013-05-14 10:49:00,52.3,35.0,29.96,SE,133,3.0,7.0,53,0.00,,,0.00,weatherlink.com 1.10,2013-05-14 14:49:00,
2013-05-14 11:04:00,54.0,36.0,29.96,South,174,3.0,10.0,50,0.00,,,0.00,weatherlink.com 1.10,2013-05-14 15:04:00,
2013-05-14 11:19:00,53.3,32.0,29.96,SSW,213,5.0,6.0,44,0.00,,,0.00,weatherlink.com 1.10,2013-05-14 15:19:00,
2013-05-14 11:34:00,53.2,33.0,29.96,SSE,163,4.0,8.0,47,0.00,,,0.00,weatherlink.com 1.10,2013-05-14 15:34:00,
2013-05-14 11:49:00,53.3,32.0,29.96,SSE,163,3.0,9.0,45,0.00,,,0.00,weatherlink.com 1.10,2013-05-14 15:49:00,
2013-05-14 12:04:00,54.7,35.0,29.96,South,185,4.0,8.0,47,0.00,,,0.00,weatherlink.com 1.10,2013-05-14 16:04:00,
2013-05-14 12:19:00,53.5,34.0,29.96,SSE,165,1.0,7.0,47,0.00,,,0.00,weatherlink.com 1.10,2013-05-14 16:19:00,
2013-05-14 12:34:00,54.0,34.0,29.96,SE,146,1.0,7.0,48,0.00,,,0.00,weatherlink.com 1.10,2013-05-14 16:34:00,
2013-05-14 12:49:00,55.0,33.0,29.95,SSW,207,4.0,6.0,44,0.00,,,0.00,weatherlink.com 1.10,2013-05-14 16:49:00,
2013-05-14 13:04:00,55.8,36.0,29.95,SSE,162,2.0,6.0,47,0.00,,,0.00,weatherlink.com 1.10,2013-05-14 17:04:00,
2013-05-14 13:19:00,55.0,34.0,29.95,SSE,155,1.0,7.0,45,0.00,,,0.00,weatherlink.com 1.10,2013-05-14 17:19:00,
2013-05-14 13:34:00,55.1,34.0,29.95,South,188,2.0,4.0,45,0.00,,,0.00,weatherlink.com 1.10,2013-05-14 17:34:00,
2013-05-14 13:49:00,54.9,33.0,29.95,South,177,2.0,8.0,43,0.00,,,0.00,weatherlink.com 1.10,2013-05-14 17:49:00,
2013-05-14 14:04:00,55.8,34.0,29.94,SE,141,3.0,9.0,44,0.00,,,0.00,weatherlink.com 1.10,2013-05-14 18:04:00,
2013-05-14 14:19:00,57.3,34.0,29.94,SSE,156,3.0,9.0,41,0.00,,,0.00,weatherlink.com 1.10,2013-05-14 18:19:00,
2013-05-14 14:34:00,57.8,33.0,29.93,South,187,2.0,6.0,39,0.00,,,0.00,weatherlink.com 1.10,2013-05-14 18:34:00,
2013-05-14 14:49:00,55.2,32.0,29.93,SSE,159,3.0,10.0,42,0.00,,,0.00,weatherlink.com 1.10,2013-05-14 18:49:00,
2013-05-14 15:04:00,54.5,32.0,29.93,SE,145,1.0,7.0,43,0.00,,,0.00,weatherlink.com 1.10,2013-05-14 19:04:00,
2013-05-14 15:19:00,54.6,33.0,29.93,South,184,2.0,5.0,44,0.00,,,0.00,weatherlink.com 1.10,2013-05-14 19:19:00,
2013-05-14 15:34:00,54.4,33.0,29.93,SSE,148,1.0,5.0,44,0.00,,,0.00,weatherlink.com 1.10,2013-05-14 19:34:00,
2013-05-14 15:49:00,54.2,33.0,29.93,SSW,196,6.0,8.0,45,0.00,,,0.00,weatherlink.com 1.10,2013-05-14 19:49:00,
2013-05-14 16:04:00,53.9,33.0,29.93,SSE,163,5.0,7.0,46,0.00,,,0.00,weatherlink.com 1.10,2013-05-14 20:04:00,
2013-05-14 16:19:00,54.2,34.0,29.93,South,180,3.0,5.0,46,0.00,,,0.00,weatherlink.com 1.10,2013-05-14 20:19:00,
2013-05-14 16:34:00,54.4,32.0,29.93,SSE,167,3.0,8.0,43,0.00,,,0.00,weatherlink.com 1.10,2013-05-14 20:34:00,
2013-05-14 16:49:00,54.2,34.0,29.93,South,174,3.0,8.0,46,0.00,,,0.00,weatherlink.com 1.10,2013-05-14 20:49:00,
2013-05-14 17:04:00,53.9,32.0,29.93,South,188,3.0,8.0,44,0.00,,,0.00,weatherlink.com 1.10,2013-05-14 21:04:00,
2013-05-14 17:19:00,53.9,33.0,29.93,SSE,160,2.0,7.0,45,0.00,,,0.00,weatherlink.com 1.10,2013-05-14 21:19:00,
2013-05-14 17:34:00,53.9,32.0,29.93,SSE,167,5.0,6.0,44,0.00,,,0.00,weatherlink.com 1.10,2013-05-14 21:34:00,
2013-05-14 17:49:00,53.8,33.0,29.93,SSE,148,2.0,6.0,46,0.00,,,0.00,weatherlink.com 1.10,2013-05-14 21:49:00,
2013-05-14 18:04:00,53.5,33.0,29.93,SSE,158,2.0,4.0,46,0.00,,,0.00,weatherlink.com 1.10,2013-05-14 22:04:00,
2013-05-14 18:19:00,53.3,33.0,29.93,SSE,156,1.0,4.0,47,0.00,,,0.00,weatherlink.com 1.10,2013-05-14 22:19:00,
2013-05-14 18:34:00,53.1,33.0,29.93,SSE,155,1.0,2.0,46,0.00,,,0.00,weatherlink.com 1.10,2013-05-14 22:34:00,
2013-05-14 18:49:00,52.9,34.0,29.93,SSE,153,0.0,1.0,49,0.00,,,0.00,weatherlink.com 1.10,2013-05-14 22:49:00,
2013-05-14 19:04:00,51.8,39.0,29.94,NE,49,5.0,7.0,63,0.00,,,0.00,weatherlink.com 1.10,2013-05-14 23:04:00,
2013-05-14 19:20:00,50.9,40.0,29.94,ENE,65,4.0,6.0,66,0.00,,,0.00,weatherlink.com 1.10,2013-05-14 23:20:00,
2013-05-14 19:35:00,50.6,40.0,29.95,ESE,121,0.0,5.0,66,0.00,,,0.00,weatherlink.com 1.10,2013-05-14 23:35:00,
2013-05-14 19:50:00,50.3,40.0,29.95,ENE,72,3.0,5.0,68,0.00,,,0.00,weatherlink.com 1.10,2013-05-14 23:50:00,
2013-05-14 20:05:00,50.0,41.0,29.96,ESE,113,1.0,5.0,70,0.00,,,0.00,weatherlink.com 1.10,2013-05-15 00:05:00,
2013-05-14 20:20:00,50.0,42.0,29.96,ENE,68,3.0,3.0,73,0.00,,,0.00,weatherlink.com 1.10,2013-05-15 00:20:00,
2013-05-14 20:35:00,49.9,42.0,29.96,ENE,57,4.0,5.0,73,0.00,,,0.00,weatherlink.com 1.10,2013-05-15 00:35:00,
2013-05-14 20:50:00,49.5,41.0,29.96,ESE,122,1.0,3.0,72,0.00,,,0.00,weatherlink.com 1.10,2013-05-15 00:50:00,
2013-05-14 21:05:00,49.3,41.0,29.97,ESE,120,0.0,5.0,73,0.00,,,0.00,weatherlink.com 1.10,2013-05-15 01:05:00,
2013-05-14 21:20:00,48.9,41.0,29.97,SE,144,0.0,1.0,74,0.00,,,0.00,weatherlink.com 1.10,2013-05-15 01:20:00,
2013-05-14 21:35:00,48.5,41.0,29.97,SSE,147,0.0,0.0,74,0.00,,,0.00,weatherlink.com 1.10,2013-05-15 01:35:00,
2013-05-14 21:50:00,48.3,40.0,29.97,ESE,122,1.0,2.0,73,0.00,,,0.00,weatherlink.com 1.10,2013-05-15 01:50:00,
2013-05-14 22:05:00,48.1,40.0,29.97,SSE,149,0.0,1.0,74,0.00,,,0.00,weatherlink.com 1.10,2013-05-15 02:05:00,
2013-05-14 22:20:00,47.7,41.0,29.97,SE,125,0.0,2.0,77,0.00,,,0.00,weatherlink.com 1.10,2013-05-15 02:20:00,
2013-05-14 22:35:00,47.7,41.0,29.97,SE,128,0.0,4.0,78,0.00,,,0.00,weatherlink.com 1.10,2013-05-15 02:35:00,
2013-05-14 22:50:00,47.5,42.0,29.98,SSE,160,1.0,3.0,80,0.00,,,0.00,weatherlink.com 1.10,2013-05-15 02:50:00,
2013-05-14 23:05:00,46.7,41.0,29.98,SSE,152,0.0,1.0,79,0.00,,,0.00,weatherlink.com 1.10,2013-05-15 03:05:00,
2013-05-14 23:20:00,46.5,40.0,29.98,SSE,153,0.0,0.0,79,0.00,,,0.00,weatherlink.com 1.10,2013-05-15 03:20:00,
2013-05-14 23:35:00,45.9,40.0,29.98,SSE,153,0.0,0.0,81,0.00,,,0.00,weatherlink.com 1.10,2013-05-15 03:35:00,
2013-05-14 23:50:00,46.7,42.0,29.98,SE,129,0.0,2.0,84,0.00,,,0.00,weatherlink.com 1.10,2013-05-15 03:50:00,